This demonstration page uses our WeatherBlox Daily Observations layout. Learn more.

Left ArrowRight Arrow

34.74481, -87.66753

Hourly Observations for July 16, 2019

Temp ( °F °C ) Dew Point ( °F °C ) Humidity (%) Winds ( mph kmh ) Pressure ( in mb ) Visibility ( mi km ) Precip ( " mm )
12:53 am 00:53 Clear 76 24.4 72 22.2 88 88 SSE 6 9 30.04 1017 10 16 0.00 0.00
1:53 am 01:53 Clear 76 24.4 72 22.2 88 88 SSE 7 11 30.03 1017 10 16 0.00 0.00
2:53 am 02:53 Clear 76 24.4 72 22.2 88 88 SSE 6 9 30.02 1017 10 16 0.00 0.00
3:53 am 03:53 Clear 76 24.4 73 22.8 91 91 S 6 9 30.02 1017 10 16 0.00 0.00
4:53 am 04:53 Clear 76 24.4 73 22.8 91 91 S 7 11 30.03 1017 10 16 0.00 0.00
5:51 am 05:51 Mostly Cloudy 75 24 73 23 94 94 S 7 11 30.03 1017 10 16 0.00 0.00
5:53 am 05:53 Mostly Cloudy 76 24.4 73 22.8 91 91 S 7 11 30.05 1018 10 16 0.00 0.00
6:17 am 06:17 Partly Cloudy 77 25 73 22.8 88 88 S 8 13 30.03 1017 10 16 0.00 0.00
6:53 am 06:53 Sunny 78 25.6 73 22.8 85 85 SSW 9 15 30.06 1018 10 16 0.00 0.00
7:51 am 07:51 Mostly Cloudy 81 27 73 23 79 79 S 9 15 30.06 1018 10 16 0.00 0.00
7:53 am 07:53 Mostly Cloudy 80 26.7 74 23.3 82 82 S 10 17 30.06 1018 10 16 0.00 0.00
9:00 am 09:00 Mostly Cloudy 82 27.8 73 22.8 74 74 SSW 12 19 30.06 1018 10 16 0.00 0.00
9:53 am 09:53 Partly Cloudy 85 29.4 73 22.8 68 68 S 14 22 30.06 1018 10 16 0.00 0.00
10:53 am 10:53 Mostly Sunny 86 30 71 21.7 61 61 SSW 21 33 30.07 1018 10 16 0.00 0.00
11:53 am 11:53 Partly Cloudy 88 31.1 71 21.7 57 57 SSW 16 26 30.06 1018 10 16 0.00 0.00
12:53 pm 12:53 Mostly Sunny 90 32.2 72 22.2 56 56 SSW 15 24 30.05 1018 10 16 0.00 0.00
1:53 pm 13:53 Partly Cloudy 91 32.8 71 21.7 52 52 SSW 22 35 30.03 1017 10 16 0.00 0.00
2:02 pm 14:02 Partly Cloudy with Nearby Thunderstorms 92 33.3 72 22.2 52 52 SW 15 24 30.00 1016 10 16 0.00 0.00
2:19 pm 14:19 Partly Cloudy 92 33.3 72 22.2 52 52 SW 18 30 29.97 1015 10 16 0.00 0.00
2:53 pm 14:53 Mostly Cloudy 90 32.2 71 21.7 54 54 WSW 17 28 30.01 1016 10 16 0.00 0.00
3:31 pm 15:31 Cloudy with Strong Thunderstorms 75 23.9 72 22.2 90 90 NW 9 15 30.03 1017 10 16 0.50 12.70
3:42 pm 15:42 Cloudy with Nearby Thunderstorms 75 23.9 71 21.7 88 88 WNW 10 17 30.03 1017 10 16 0.59 14.99
3:53 pm 15:53 Cloudy with Nearby Thunderstorms 76 24.4 71 21.7 85 85 W 13 20 30.05 1018 10 16 0.68 17.27
4:01 pm 16:01 Cloudy with Light Rain 76 24.4 71 21.7 85 85 W 7 11 30.03 1017 10 16 0.00 0.00
4:53 pm 16:53 Mostly Cloudy 79 26.1 73 22.8 82 82 WSW 12 19 30.04 1017 10 16 0.00 0.00
5:53 pm 17:53 Partly Cloudy with Light Rain 79 26.1 74 23.3 85 85 SW 10 17 30.02 1017 10 16 0.01 0.25
6:53 pm 18:53 Mostly Sunny 77 25 74 23.3 90 90 S 6 9 30.04 1017 10 16 0.04 1.02
7:53 pm 19:53 Partly Cloudy 77 25 73 22.8 88 88 S 6 9 30.03 1017 10 16 0.00 0.00
8:53 pm 20:53 Clear 76 24.4 73 22.8 91 91 SSE 7 11 30.04 1017 10 16 0.00 0.00
9:53 pm 21:53 Cloudy 76 24.4 72 22.2 88 88 S 7 11 30.04 1017 10 16 0.00 0.00
10:53 pm 22:53 Clear 75 23.9 72 22.2 90 90 SSE 5 7 30.03 1017 10 16 0.00 0.00
11:53 pm 23:53 Mostly Cloudy 75 23.9 72 22.2 90 90 undefined N/A 30.04 1017 10 16 0.00 0.00

Powered by AerisWeather